Flag for U.S.A. Weather past 2 weeks in St. Louis, Missouri, U.S.A.

Now
79 °F

Scattered clouds.


Feels Like: 81 °F
Forecast: 69 / 90 °F
Wind: 8 mph from North

Location: Lambert-St. Louis International Airport

Current Time: Jul 29, 2015 at 9:55:42 PM

Latest Report: Jul 29, 2015 at 8:51 PM


Visibility: 10 mi

Pressure: 30.05 "Hg

Humidity: 60%

Dew point: 64 °F

Location of St. LouisLocation

Historic Weather in St. Louis — Graph

°F

St. Louis temperature yesterday

Maximum temperature yesterday: 100 °F (at 2:51 PM)
Minimum temperature yesterday: 76 °F (at 5:51 AM)
Average temperature yesterday: 88 °F

Past Weeks' High & Low Weather Summary

 TemperatureHumidityPressure
High100 °F (Jul 28, 2:51 PM)91% (Jul 20, 10:51 AM)30.05 "Hg (Jul 20, 10:51 AM)
Low69 °F (Jul 22, 5:51 AM)42% (Jul 28, 2:51 PM)29.69 "Hg (Jul 14, 6:51 PM)
Average83 °F66%29.90 "Hg
* Reported Jul 14 6:51 PM — Jul 29 6:51 PM, St. Louis, Weather by CustomWeather, © 2015

Note: Actual official high and low records may vary slightly from our data, if they occured in-between our weather recording intervals... More about our weather records

Advertising

St. Louis weather history for previous 24 hours

 ConditionsComfort  
Time TempWeatherWind HumidityBarometerVisibility
6:51 PM
Wed, Jul 29
86 °FScattered clouds.14 mph46%30.01 "Hg10 mi
5:51 PM88 °FScattered clouds.12 mph46%30.00 "Hg10 mi
4:51 PM89 °FScattered clouds.13 mph55%30.00 "Hg10 mi
3:51 PM89 °FScattered clouds.13 mph59%30.01 "Hg10 mi
2:51 PM89 °FScattered clouds.12 mph57%30.01 "Hg10 mi
1:51 PM91 °FBroken clouds.8 mph56%30.01 "Hg10 mi
12:51 PM88 °FBroken clouds.9 mph57%30.01 "Hg10 mi
11:51 AM84 °FBroken clouds.12 mph65%30.02 "Hg10 mi
10:58 AM84 °FPartly sunny.12 mph66%30.05 "Hg10 mi
9:51 AM85 °FPartly sunny.7 mph65%29.97 "Hg10 mi
8:51 AM83 °FPartly sunny.5 mph70%29.98 "Hg10 mi
7:51 AM82 °FBroken clouds.9 mph72%29.97 "Hg10 mi
6:51 AM83 °FPartly cloudy.10 mph79%29.96 "Hg7 mi
5:51 AM83 °FPassing clouds.7 mph79%29.94 "Hg9 mi
4:51 AM84 °FPassing clouds.7 mph77%29.94 "Hg9 mi
3:51 AM84 °FPassing clouds.6 mph77%29.91 "Hg10 mi
2:51 AM85 °FPassing clouds.7 mph75%29.90 "Hg10 mi
1:51 AM86 °FPassing clouds.6 mph72%29.90 "Hg10 mi
12:51 AM87 °FPassing clouds.8 mph72%29.90 "Hg10 mi
11:51 PM
Tue, Jul 28
88 °FPassing clouds.No wind70%29.93 "Hg10 mi
10:51 PM89 °FPassing clouds.3 mph65%29.91 "Hg10 mi
9:51 PM90 °FPassing clouds.7 mph63%29.89 "Hg10 mi
Weather by CustomWeather, © 2015

See weather overviewHow to use our weather pages